TimeCST,TemperatureF,Dew PointF,Humidity,Sea Level PressureIn,VisibilityMPH,Wind Direction,Wind SpeedMPH,Gust SpeedMPH,PrecipitationIn,Events,Conditions,WindDirDegrees,DateUTC
12:00 AM,80,77,88,29.93,12,Calm,Calm,,,,Scattered Clouds,,2013-08-19 06:00:00
3:00 AM,78,77,94,29.90,12,Calm,Calm,,,,Scattered Clouds,,2013-08-19 09:00:00
5:00 AM,77.0,75.2,94,29.89,6.2,West,3.5,-,N/A,,Partly Cloudy,270,2013-08-19 11:00:00
6:00 AM,76,75,97,29.90,14,Calm,Calm,,,,Partly Cloudy,,2013-08-19 12:00:00
6:00 AM,77.0,75.2,94,29.90,6.2,Calm,Calm,-,N/A,,Partly Cloudy,0,2013-08-19 12:00:00
7:00 AM,78.8,77.0,94,29.90,6.2,North,3.5,-,N/A,,Partly Cloudy,360,2013-08-19 13:00:00
8:00 AM,84.2,78.8,84,29.91,6.2,Calm,Calm,-,N/A,,Scattered Clouds,0,2013-08-19 14:00:00
9:00 AM,86,77,69,29.92,15,ESE,3.5,,,,Partly Cloudy,110,2013-08-19 15:00:00
9:00 AM,86.0,77.0,74,29.91,6.2,ESE,3.5,-,N/A,,Scattered Clouds,110,2013-08-19 15:00:00
10:00 AM,87.8,77.0,70,29.92,6.2,East,6.9,-,N/A,,Scattered Clouds,80,2013-08-19 16:00:00
11:00 AM,87.8,77.0,70,29.92,6.2,ENE,9.2,-,N/A,,Scattered Clouds,70,2013-08-19 17:00:00
12:00 PM,87.8,77.0,70,29.91,6.2,East,9.2,-,N/A,Thunderstorm,Thunderstorm,90,2013-08-19 18:00:00
1:00 PM,86.0,78.8,79,29.88,6.2,East,8.1,-,N/A,,Scattered Clouds,80,2013-08-19 19:00:00
2:00 PM,87.8,77.0,70,29.86,6.2,ENE,11.5,-,N/A,,Scattered Clouds,70,2013-08-19 20:00:00
3:00 PM,87.8,75.2,66,29.85,6.2,East,10.4,-,N/A,,Mostly Cloudy,80,2013-08-19 21:00:00
4:00 PM,87.8,77.0,70,29.83,6.2,East,9.2,-,N/A,,Mostly Cloudy,90,2013-08-19 22:00:00
5:00 PM,86.0,77.0,74,29.83,6.2,East,9.2,-,N/A,,Scattered Clouds,80,2013-08-19 23:00:00
6:00 PM,85,76,69,29.87,12,East,5.8,,,,Partly Cloudy,90,2013-08-20 00:00:00
6:00 PM,84.2,77.0,79,29.86,6.2,East,5.8,-,N/A,,Scattered Clouds,90,2013-08-20 00:00:00
9:00 PM,82,76,77,29.91,12,East,4.6,,,,Scattered Clouds,80,2013-08-20 03:00:00